| time (UTC) | temp F | wind direction | speed MPH | gust MPH | rain 1hr in | rain 24hr in | rain mn in | humidity % | barometer mb |
| 20260903035601 | 79 | 88 | 5.0 | 11.0 | 0.00 | 0.04 | 0.04 | 75 | 1010.3 |
| 20260903035054 | 79 | 100 | 5.0 | 11.0 | 0.00 | 0.04 | 0.04 | 75 | 1010.4 |
| 20260903034552 | 79 | 77 | 4.0 | 10.0 | 0.00 | 0.04 | 0.04 | 75 | 1010.4 |
| 20260903034049 | 79 | 90 | 4.0 | 10.0 | 0.00 | 0.04 | 0.04 | 75 | 1010.4 |
| 20260903033547 | 79 | 150 | 3.0 | 10.0 | 0.00 | 0.04 | 0.04 | 74 | 1010.4 |
| 20260903033048 | 79 | 64 | 3.0 | 9.0 | 0.00 | 0.04 | 0.04 | 74 | 1010.4 |
| 20260903032547 | 79 | 82 | 3.0 | 10.0 | 0.00 | 0.04 | 0.04 | 74 | 1010.4 |
| 20260903032305 | 79 | 68 | 4.0 | 10.0 | 0.00 | 0.04 | 0.04 | 74 | 1010.5 |
| 20260903031548 | 79 | 76 | 3.0 | 9.0 | 0.00 | 0.04 | 0.04 | 73 | 1010.4 |
| 20260903031047 | 79 | 92 | 3.0 | 8.0 | 0.00 | 0.04 | 0.04 | 72 | 1010.4 |
| 20260903031026 | 79 | 80 | 2.0 | 6.0 | 0.00 | 0.04 | 0.04 | 72 | 1010.4 |
| 20260903030307 | 79 | 78 | 3.0 | 7.0 | 0.00 | 0.04 | 0.04 | 71 | 1010.5 |
| 20260903025542 | 79 | 30 | 2.0 | 7.0 | 0.00 | 0.04 | 0.04 | 71 | 1010.4 |
| 20260903025042 | 79 | 90 | 2.0 | 7.0 | 0.00 | 0.04 | 0.04 | 70 | 1010.3 |
| 20260903024542 | 79 | 87 | 1.0 | 6.0 | 0.00 | 0.04 | 0.04 | 70 | 1010.4 |
| 20260903024301 | 79 | 101 | 2.0 | 5.0 | 0.00 | 0.04 | 0.04 | 70 | 1010.3 |
| 20260903023541 | 79 | 67 | 1.0 | 5.0 | 0.00 | 0.04 | 0.04 | 69 | 1010.3 |
| 20260903023253 | 80 | 92 | 1.0 | 3.0 | 0.00 | 0.04 | 0.04 | 69 | 1010.2 |
| 20260903022530 | 80 | 92 | 1.0 | 3.0 | 0.00 | 0.04 | 0.04 | 68 | 1010.2 |
| 20260903022032 | 80 | 92 | 1.0 | 5.0 | 0.00 | 0.04 | 0.04 | 68 | 1010.2 |
| 20260903021807 | 80 | 76 | 1.0 | 5.0 | 0.00 | 0.04 | 0.04 | 68 | 1010.2 |
| 20260903021044 | 80 | 69 | 1.0 | 5.0 | 0.00 | 0.04 | 0.04 | 67 | 1010.3 |
| 20260903020747 | 80 | 78 | 1.0 | 6.0 | 0.00 | 0.04 | 0.04 | 67 | 1010.3 |
| 20260903020025 | 80 | 76 | 2.0 | 6.0 | 0.00 | 0.04 | 0.04 | 67 | 1010.3 |
| 20260903015522 | 80 | 96 | 1.0 | 5.0 | 0.00 | 0.04 | 0.04 | 67 | 1010.3 |
| 20260903015248 | 80 | 114 | 0.0 | 5.0 | 0.00 | 0.04 | 0.04 | 67 | 1010.2 |
| 20260903014522 | 80 | 97 | 1.0 | 5.0 | 0.00 | 0.04 | 0.04 | 67 | 1010.0 |
| 20260903014023 | 81 | 55 | 0.0 | 5.0 | 0.00 | 0.04 | 0.04 | 68 | 1009.9 |
| 20260903013523 | 81 | 158 | 0.0 | 1.0 | 0.00 | 0.04 | 0.04 | 67 | 1009.9 |
| 20260903013033 | 81 | 158 | 0.0 | 0.0 | 0.00 | 0.04 | 0.04 | 67 | 1009.9 |
| 20260903012519 | 81 | 158 | 0.0 | 0.0 | 0.00 | 0.04 | 0.04 | 67 | 1009.8 |
| 20260903012238 | 82 | 158 | 0.0 | 0.0 | 0.00 | 0.04 | 0.04 | 67 | 1009.7 |
| 20260903011516 | 82 | 158 | 0.0 | 0.0 | 0.00 | 0.04 | 0.04 | 66 | 1009.6 |
| 20260903011018 | 82 | 158 | 0.0 | 0.0 | 0.00 | 0.04 | 0.04 | 65 | 1009.6 |
| 20260903010516 | 83 | 158 | 0.0 | 0.0 | 0.00 | 0.04 | 0.04 | 64 | 1009.6 |
| 20260903010009 | 83 | 158 | 0.0 | 0.0 | 0.00 | 0.04 | 0.04 | 64 | 1009.5 |
| 20260903005006 | 84 | 158 | 0.0 | 0.0 | 0.00 | 0.04 | 0.04 | 62 | 1009.5 |
| 20260903004504 | 84 | 158 | 0.0 | 0.0 | 0.00 | 0.04 | 0.04 | 61 | 1009.5 |
| 20260903004003 | 85 | 158 | 0.0 | 2.0 | 0.00 | 0.04 | 0.04 | 61 | 1009.6 |
| 20260903003501 | 85 | 158 | 0.0 | 2.0 | 0.00 | 0.04 | 0.04 | 60 | 1009.6 |
| 20260903002959 | 86 | 158 | 0.0 | 4.0 | 0.00 | 0.04 | 0.04 | 58 | 1009.6 |
| 20260903002731 | 86 | 158 | 0.0 | 4.0 | 0.00 | 0.04 | 0.04 | 57 | 1009.6 |
| 20260903002448 | 86 | 159 | 0.0 | 2.0 | 0.00 | 0.04 | 0.04 | 57 | 1009.5 |
| 20260903001456 | 87 | 157 | 0.0 | 1.0 | 0.00 | 0.04 | 0.04 | 57 | 1009.6 |
| 20260903000957 | 87 | 157 | 1.0 | 4.0 | 0.00 | 0.04 | 0.04 | 56 | 1009.5 |
| 20260903000458 | 87 | 157 | 1.0 | 4.0 | 0.00 | 0.04 | 0.04 | 55 | 1009.5 |
| 20260902235954 | 87 | 153 | 2.0 | 4.0 | 0.00 | 0.04 | 0.04 | 56 | 1009.5 |
| 20260902235452 | 87 | 165 | 2.0 | 4.0 | 0.00 | 0.04 | 0.04 | 55 | 1009.5 |
| 20260902234953 | 87 | 166 | 2.0 | 4.0 | 0.00 | 0.04 | 0.04 | 55 | 1009.5 |
| 20260902234452 | 87 | 103 | 2.0 | 5.0 | 0.00 | 0.04 | 0.04 | 54 | 1009.6 |
| 20260902233951 | 88 | 156 | 2.0 | 5.0 | 0.00 | 0.04 | 0.04 | 54 | 1009.6 |
| 20260902233443 | 88 | 152 | 1.0 | 4.0 | 0.00 | 0.04 | 0.04 | 54 | 1009.6 |
| 20260902233202 | 88 | 108 | 1.0 | 4.0 | 0.00 | 0.04 | 0.04 | 54 | 1009.6 |
| 20260902232706 | 88 | 121 | 1.0 | 4.0 | 0.00 | 0.04 | 0.04 | 52 | 1009.6 |
| 20260902231939 | 88 | 142 | 1.0 | 3.0 | 0.00 | 0.04 | 0.04 | 53 | 1009.7 |
| 20260902231434 | 88 | 109 | 1.0 | 3.0 | 0.00 | 0.04 | 0.04 | 52 | 1009.7 |
| 20260902230937 | 88 | 127 | 1.0 | 3.0 | 0.00 | 0.04 | 0.04 | 52 | 1009.6 |
| 20260902230434 | 88 | 72 | 2.0 | 5.0 | 0.00 | 0.04 | 0.04 | 52 | 1009.6 |
| 20260902225937 | 88 | 153 | 1.0 | 5.0 | 0.00 | 0.04 | 0.04 | 52 | 1009.6 |
| 20260902225655 | 88 | 175 | 1.0 | 5.0 | 0.00 | 0.04 | 0.04 | 52 | 1009.6 |
| 20260902224934 | 88 | 158 | 2.0 | 5.0 | 0.00 | 0.04 | 0.04 | 53 | 1009.6 |
| 20260902224653 | 87 | 130 | 1.0 | 4.0 | 0.00 | 0.04 | 0.04 | 52 | 1009.6 |
| 20260902224420 | 87 | 304 | 0.0 | 2.0 | 0.00 | 0.04 | 0.04 | 52 | 1009.6 |
| 20260902223427 | 87 | 300 | 1.0 | 5.0 | 0.00 | 0.04 | 0.04 | 51 | 1009.7 |
| 20260902222928 | 88 | 300 | 1.0 | 5.0 | 0.00 | 0.04 | 0.04 | 50 | 1009.6 |
| 20260902222430 | 88 | 42 | 1.0 | 2.0 | 0.00 | 0.04 | 0.04 | 53 | 1009.7 |
| 20260902221928 | 87 | 36 | 2.0 | 6.0 | 0.00 | 0.04 | 0.04 | 51 | 1009.7 |
| 20260902221428 | 87 | 35 | 2.0 | 6.0 | 0.00 | 0.04 | 0.04 | 51 | 1009.7 |
| 20260902221152 | 87 | 348 | 1.0 | 5.0 | 0.00 | 0.04 | 0.04 | 51 | 1009.7 |
| 20260902220425 | 87 | 344 | 2.0 | 7.0 | 0.00 | 0.04 | 0.04 | 52 | 1009.7 |
| 20260902215924 | 87 | 88 | 2.0 | 7.0 | 0.00 | 0.04 | 0.04 | 51 | 1009.8 |
| 20260902215425 | 88 | 70 | 1.0 | 5.0 | 0.00 | 0.04 | 0.04 | 52 | 1009.8 |
| 20260902214925 | 88 | 90 | 1.0 | 5.0 | 0.00 | 0.04 | 0.04 | 52 | 1009.8 |
| 20260902214423 | 88 | 240 | 1.0 | 5.0 | 0.00 | 0.04 | 0.04 | 52 | 1009.8 |
| 20260902213921 | 88 | 105 | 1.0 | 4.0 | 0.00 | 0.04 | 0.04 | 52 | 1009.8 |
| 20260902213422 | 87 | 158 | 2.0 | 4.0 | 0.00 | 0.04 | 0.04 | 53 | 1009.8 |
| 20260902212920 | 87 | 213 | 2.0 | 5.0 | 0.00 | 0.04 | 0.04 | 52 | 1009.9 |
| 20260902212643 | 87 | 263 | 2.0 | 5.0 | 0.00 | 0.04 | 0.04 | 51 | 1010.0 |
| 20260902212539 | 87 | 228 | 2.0 | 7.0 | 0.00 | 0.04 | 0.04 | 52 | 1010.0 |
| 20260902211415 | 87 | 87 | 2.0 | 7.0 | 0.00 | 0.04 | 0.04 | 52 | 1009.9 |
| 20260902210918 | 87 | 87 | 1.0 | 6.0 | 0.00 | 0.04 | 0.04 | 52 | 1009.9 |
| 20260902210856 | 87 | 74 | 1.0 | 3.0 | 0.00 | 0.04 | 0.04 | 53 | 1009.9 |
| 20260902210140 | 87 | 38 | 1.0 | 6.0 | 0.00 | 0.04 | 0.04 | 53 | 1010.0 |
| 20260902205637 | 86 | 337 | 2.0 | 6.0 | 0.00 | 0.04 | 0.04 | 53 | 1010.0 |
| 20260902205129 | 86 | 42 | 3.0 | 7.0 | 0.00 | 0.04 | 0.04 | 55 | 1010.0 |
| 20260902204415 | 86 | 169 | 2.0 | 7.0 | 0.00 | 0.04 | 0.04 | 55 | 1010.0 |
| 20260902203915 | 86 | 68 | 2.0 | 5.0 | 0.00 | 0.04 | 0.04 | 54 | 1010.0 |
| 20260902203415 | 86 | 346 | 2.0 | 5.0 | 0.00 | 0.04 | 0.04 | 54 | 1010.2 |
| 20260902202915 | 86 | 226 | 2.0 | 7.0 | 0.00 | 0.04 | 0.04 | 56 | 1010.3 |
| 20260902202414 | 86 | 81 | 3.0 | 7.0 | 0.00 | 0.04 | 0.04 | 54 | 1010.3 |
| 20260902201914 | 86 | 149 | 3.0 | 5.0 | 0.00 | 0.04 | 0.04 | 55 | 1010.4 |
| 20260902201417 | 86 | 266 | 3.0 | 5.0 | 0.00 | 0.04 | 0.04 | 55 | 1010.4 |
| 20260902201131 | 86 | 139 | 3.0 | 7.0 | 0.00 | 0.04 | 0.04 | 56 | 1010.4 |
| 20260902200635 | 85 | 148 | 3.0 | 7.0 | 0.00 | 0.04 | 0.04 | 55 | 1010.6 |
| 20260902195912 | 86 | 65 | 2.0 | 9.0 | 0.00 | 0.04 | 0.04 | 56 | 1010.7 |
| 20260902195412 | 86 | 116 | 2.0 | 9.0 | 0.00 | 0.04 | 0.04 | 56 | 1010.7 |
| 20260902194913 | 85 | 139 | 2.0 | 6.0 | 0.00 | 0.04 | 0.04 | 55 | 1010.9 |
| 20260902194407 | 85 | 98 | 3.0 | 7.0 | 0.00 | 0.04 | 0.04 | 57 | 1011.0 |
| 20260902194136 | 85 | 121 | 3.0 | 7.0 | 0.00 | 0.04 | 0.04 | 57 | 1011.0 |
| 20260902193406 | 85 | 151 | 2.0 | 6.0 | 0.00 | 0.04 | 0.04 | 57 | 1011.0 |
| 20260902192907 | 85 | 235 | 2.0 | 6.0 | 0.00 | 0.04 | 0.04 | 59 | 1011.0 |
| 20260902192633 | 85 | 185 | 2.0 | 6.0 | 0.00 | 0.04 | 0.04 | 56 | 1011.1 |
| 20260902191906 | 85 | 202 | 2.0 | 6.0 | 0.00 | 0.04 | 0.04 | 57 | 1011.1 |
| 20260902191407 | 85 | 106 | 2.0 | 6.0 | 0.00 | 0.04 | 0.04 | 56 | 1011.0 |
| 20260902190906 | 85 | 136 | 1.0 | 6.0 | 0.00 | 0.04 | 0.04 | 58 | 1011.0 |
| 20260902190406 | 85 | 103 | 1.0 | 3.0 | 0.00 | 0.04 | 0.04 | 58 | 1011.1 |
| 20260902190128 | 84 | 304 | 2.0 | 5.0 | 0.00 | 0.04 | 0.04 | 57 | 1011.1 |
| 20260902185406 | 84 | 82 | 2.0 | 5.0 | 0.00 | 0.04 | 0.04 | 59 | 1011.1 |
| 20260902185126 | 83 | 172 | 2.0 | 5.0 | 0.00 | 0.04 | 0.04 | 59 | 1011.1 |
| 20260902184844 | 83 | 201 | 2.0 | 5.0 | 0.00 | 0.04 | 0.04 | 58 | 1011.1 |
| 20260902183904 | 83 | 201 | 2.0 | 5.0 | 0.00 | 0.04 | 0.04 | 60 | 1011.1 |
| 20260902183405 | 83 | 123 | 2.0 | 6.0 | 0.00 | 0.04 | 0.04 | 59 | 1011.1 |
| 20260902182904 | 83 | 167 | 2.0 | 6.0 | 0.00 | 0.04 | 0.04 | 60 | 1011.2 |
| 20260902182405 | 83 | 153 | 2.0 | 4.0 | 0.00 | 0.04 | 0.04 | 59 | 1011.2 |
| 20260902181904 | 83 | 340 | 2.0 | 6.0 | 0.00 | 0.04 | 0.04 | 60 | 1011.3 |
| 20260902181404 | 83 | 178 | 2.0 | 6.0 | 0.00 | 0.04 | 0.04 | 60 | 1011.3 |
| 20260902180905 | 82 | 121 | 2.0 | 5.0 | 0.00 | 0.04 | 0.04 | 60 | 1011.4 |
| 20260902180405 | 82 | 155 | 2.0 | 8.0 | 0.00 | 0.04 | 0.04 | 59 | 1011.5 |
| 20260902175905 | 82 | 146 | 2.0 | 8.0 | 0.00 | 0.04 | 0.04 | 60 | 1011.7 |
| 20260902175406 | 82 | 140 | 2.0 | 6.0 | 0.00 | 0.04 | 0.04 | 60 | 1011.8 |
| 20260902175326 | 82 | 350 | 2.0 | 7.0 | 0.00 | 0.04 | 0.04 | 62 | 1012.0 |
| 20260902174951 | 82 | 175 | 2.0 | 7.0 | 0.00 | 0.04 | 0.04 | 63 | 1011.9 |
| 20260902173903 | 81 | 221 | 2.0 | 7.0 | 0.00 | 0.04 | 0.04 | 64 | 1012.0 |
| 20260902173404 | 81 | 161 | 2.0 | 6.0 | 0.00 | 0.04 | 0.04 | 64 | 1012.1 |
| 20260902172904 | 82 | 99 | 2.0 | 6.0 | 0.00 | 0.04 | 0.04 | 63 | 1012.2 |
| 20260902172405 | 81 | 126 | 1.0 | 4.0 | 0.00 | 0.04 | 0.04 | 64 | 1012.4 |
| 20260902171905 | 82 | 143 | 2.0 | 7.0 | 0.00 | 0.04 | 0.04 | 64 | 1012.6 |
| 20260902171626 | 82 | 157 | 2.0 | 7.0 | 0.00 | 0.04 | 0.04 | 62 | 1012.5 |
| 20260902170918 | 81 | 134 | 1.0 | 4.0 | 0.00 | 0.04 | 0.04 | 64 | 1012.5 |
| 20260902170404 | 81 | 180 | 2.0 | 3.0 | 0.00 | 0.04 | 0.04 | 64 | 1012.4 |
| 20260902165905 | 80 | 163 | 1.0 | 3.0 | 0.00 | 0.04 | 0.04 | 67 | 1012.1 |
| 20260902165405 | 79 | 158 | 1.0 | 3.0 | 0.00 | 0.04 | 0.04 | 67 | 1012.0 |
| 20260902164905 | 79 | 185 | 1.0 | 3.0 | 0.00 | 0.04 | 0.04 | 66 | 1012.1 |
| 20260902164404 | 79 | 146 | 1.0 | 5.0 | 0.00 | 0.04 | 0.04 | 63 | 1012.2 |
| 20260902163900 | 80 | 146 | 1.0 | 5.0 | 0.00 | 0.04 | 0.04 | 66 | 1012.3 |
| 20260902163400 | 79 | 68 | 1.0 | 4.0 | 0.00 | 0.04 | 0.04 | 65 | 1012.2 |
| 20260902162901 | 79 | 76 | 2.0 | 5.0 | 0.00 | 0.04 | 0.04 | 66 | 1012.4 |
| 20260902162401 | 79 | 131 | 1.0 | 5.0 | 0.00 | 0.04 | 0.04 | 69 | 1012.3 |
| 20260902161900 | 79 | 148 | 1.0 | 5.0 | 0.00 | 0.04 | 0.04 | 67 | 1012.2 |
| 20260902161624 | 78 | 155 | 2.0 | 5.0 | 0.00 | 0.04 | 0.04 | 68 | 1012.4 |
| 20260902160902 | 79 | 141 | 2.0 | 5.0 | 0.00 | 0.04 | 0.04 | 67 | 1012.3 |
| 20260902160400 | 79 | 144 | 2.0 | 5.0 | 0.00 | 0.04 | 0.04 | 68 | 1012.0 |
| 20260902155900 | 78 | 208 | 2.0 | 5.0 | 0.00 | 0.04 | 0.04 | 70 | 1012.0 |
| 20260902155357 | 78 | 157 | 2.0 | 5.0 | 0.00 | 0.04 | 0.04 | 72 | 1012.0 |
| 20260902154857 | 77 | 163 | 2.0 | 5.0 | 0.00 | 0.04 | 0.04 | 70 | 1011.9 |
| 20260902154354 | 77 | 90 | 2.0 | 7.0 | 0.00 | 0.04 | 0.04 | 71 | 1011.8 |
| 20260902153853 | 77 | 87 | 3.0 | 7.0 | 0.00 | 0.04 | 0.04 | 71 | 1011.9 |
| 20260902153354 | 76 | 160 | 2.0 | 8.0 | 0.00 | 0.04 | 0.04 | 74 | 1011.9 |
| 20260902152854 | 75 | 75 | 2.0 | 8.0 | 0.00 | 0.04 | 0.04 | 73 | 1011.9 |
| 20260902152353 | 76 | 142 | 2.0 | 5.0 | 0.00 | 0.04 | 0.04 | 73 | 1012.0 |
| 20260902151852 | 76 | 218 | 2.0 | 5.0 | 0.00 | 0.04 | 0.04 | 76 | 1012.0 |
| 20260902151351 | 75 | 157 | 2.0 | 8.0 | 0.00 | 0.04 | 0.04 | 76 | 1012.0 |
| 20260902150850 | 75 | 164 | 2.0 | 8.0 | 0.00 | 0.04 | 0.04 | 77 | 1011.9 |
| 20260902150346 | 74 | 80 | 2.0 | 7.0 | 0.00 | 0.04 | 0.04 | 78 | 1011.8 |
| 20260902145846 | 73 | 76 | 2.0 | 5.0 | 0.00 | 0.04 | 0.04 | 77 | 1011.8 |
| 20260902145345 | 73 | 80 | 1.0 | 5.0 | 0.00 | 0.04 | 0.04 | 78 | 1011.7 |
| 20260902144844 | 73 | 127 | 1.0 | 5.0 | 0.00 | 0.04 | 0.04 | 79 | 1011.9 |
| 20260902144343 | 73 | 158 | 1.0 | 5.0 | 0.00 | 0.04 | 0.04 | 82 | 1012.0 |
| 20260902143845 | 72 | 148 | 2.0 | 5.0 | 0.00 | 0.04 | 0.04 | 81 | 1011.9 |
| 20260902143356 | 72 | 150 | 1.0 | 5.0 | 0.00 | 0.04 | 0.04 | 82 | 1012.0 |
| 20260902142834 | 71 | 149 | 1.0 | 5.0 | 0.00 | 0.04 | 0.04 | 83 | 1012.1 |
| 20260902142328 | 71 | 89 | 1.0 | 5.0 | 0.00 | 0.04 | 0.04 | 84 | 1012.1 |
| 20260902141827 | 70 | 84 | 1.0 | 5.0 | 0.00 | 0.04 | 0.04 | 84 | 1012.1 |
| 20260902141328 | 70 | 83 | 1.0 | 6.0 | 0.00 | 0.04 | 0.04 | 86 | 1012.2 |
| 20260902141029 | 69 | 326 | 0.0 | 2.0 | 0.00 | 0.04 | 0.04 | 87 | 1012.1 |
| 20260902140916 | 69 | 84 | 0.0 | 6.0 | 0.00 | 0.04 | 0.04 | 86 | 1012.1 |
| 20260902135823 | 68 | 326 | 1.0 | 3.0 | 0.00 | 0.04 | 0.04 | 87 | 1012.1 |
| 20260902135324 | 68 | 325 | 1.0 | 3.0 | 0.00 | 0.04 | 0.04 | 88 | 1012.1 |
| 20260902134821 | 68 | 0 | 1.0 | 2.0 | 0.00 | 0.04 | 0.04 | 89 | 1012.0 |
| 20260902134319 | 67 | 73 | 2.0 | 6.0 | 0.00 | 0.04 | 0.04 | 89 | 1012.1 |
| 20260902133817 | 67 | 79 | 2.0 | 6.0 | 0.00 | 0.04 | 0.04 | 90 | 1012.3 |
| 20260902133540 | 67 | 85 | 2.0 | 4.0 | 0.00 | 0.04 | 0.04 | 91 | 1012.2 |
| 20260902132818 | 67 | 153 | 1.0 | 3.0 | 0.00 | 0.04 | 0.04 | 91 | 1012.2 |
| 20260902132317 | 66 | 153 | 1.0 | 3.0 | 0.00 | 0.04 | 0.04 | 91 | 1012.2 |
| 20260902131819 | 66 | 148 | 0.0 | 2.0 | 0.00 | 0.04 | 0.04 | 91 | 1012.2 |
| 20260902131317 | 66 | 151 | 0.0 | 2.0 | 0.00 | 0.04 | 0.04 | 91 | 1012.2 |
| 20260902130815 | 66 | 160 | 0.0 | 1.0 | 0.00 | 0.04 | 0.04 | 91 | 1012.1 |
| 20260902130314 | 66 | 160 | 0.0 | 1.0 | 0.00 | 0.04 | 0.04 | 91 | 1012.1 |
| 20260902125811 | 66 | 161 | 1.0 | 4.0 | 0.00 | 0.04 | 0.04 | 91 | 1012.1 |
| 20260902125535 | 66 | 160 | 1.0 | 4.0 | 0.00 | 0.04 | 0.04 | 91 | 1012.1 |
| 20260902124810 | 66 | 158 | 1.0 | 8.0 | 0.00 | 0.04 | 0.04 | 91 | 1012.2 |
| 20260902124309 | 66 | 96 | 1.0 | 8.0 | 0.00 | 0.04 | 0.04 | 91 | 1012.1 |
| 20260902123810 | 66 | 111 | 0.0 | 1.0 | 0.00 | 0.04 | 0.04 | 91 | 1012.2 |
| 20260902123308 | 65 | 111 | 0.0 | 3.0 | 0.00 | 0.04 | 0.04 | 91 | 1012.2 |
| 20260902122806 | 65 | 111 | 1.0 | 3.0 | 0.00 | 0.04 | 0.04 | 92 | 1012.1 |
| 20260902122754 | 65 | 132 | 1.0 | 5.0 | 0.00 | 0.04 | 0.04 | 92 | 1012.1 |
| 20260902122247 | 65 | 78 | 0.0 | 5.0 | 0.00 | 0.04 | 0.04 | 92 | 1012.0 |
| 20260902121304 | 65 | 117 | 1.0 | 2.0 | 0.00 | 0.04 | 0.04 | 92 | 1012.1 |
| 20260902120801 | 65 | 117 | 1.0 | 2.0 | 0.00 | 0.04 | 0.04 | 92 | 1012.2 |
| 20260902120300 | 65 | 115 | 1.0 | 2.0 | 0.00 | 0.04 | 0.04 | 91 | 1012.3 |
| 20260902115801 | 65 | 114 | 1.0 | 3.0 | 0.00 | 0.04 | 0.04 | 91 | 1012.3 |
| 20260902115259 | 65 | 102 | 1.0 | 3.0 | 0.00 | 0.04 | 0.04 | 91 | 1012.3 |
| 20260902114758 | 65 | 103 | 1.0 | 3.0 | 0.00 | 0.04 | 0.04 | 91 | 1012.1 |
| 20260902114256 | 65 | 105 | 0.0 | 3.0 | 0.00 | 0.04 | 0.04 | 91 | 1012.2 |
| 20260902113753 | 65 | 109 | 0.0 | 1.0 | 0.00 | 0.04 | 0.04 | 91 | 1012.4 |
| 20260902113254 | 65 | 109 | 1.0 | 2.0 | 0.00 | 0.04 | 0.04 | 91 | 1012.4 |
| 20260902112755 | 65 | 109 | 1.0 | 3.0 | 0.00 | 0.04 | 0.04 | 91 | 1012.5 |
| 20260902112253 | 65 | 105 | 1.0 | 3.0 | 0.00 | 0.04 | 0.04 | 91 | 1012.7 |
| 20260902111754 | 65 | 132 | 1.0 | 4.0 | 0.00 | 0.04 | 0.04 | 91 | 1012.7 |
| 20260902111253 | 65 | 132 | 1.0 | 5.0 | 0.00 | 0.04 | 0.04 | 91 | 1012.6 |
| 20260902110752 | 65 | 128 | 1.0 | 5.0 | 0.00 | 0.04 | 0.04 | 91 | 1012.6 |
| 20260902110249 | 65 | 128 | 1.0 | 3.0 | 0.00 | 0.04 | 0.04 | 91 | 1012.7 |
| 20260902105749 | 65 | 157 | 0.0 | 3.0 | 0.00 | 0.04 | 0.04 | 91 | 1012.6 |
| 20260902105249 | 65 | 157 | 0.0 | 3.0 | 0.00 | 0.04 | 0.04 | 91 | 1012.6 |
| 20260902104747 | 66 | 157 | 0.0 | 2.0 | 0.00 | 0.04 | 0.04 | 91 | 1012.8 |
| 20260902104511 | 66 | 156 | 0.0 | 2.0 | 0.00 | 0.04 | 0.04 | 92 | 1012.9 |
| 20260902103745 | 66 | 155 | 0.0 | 2.0 | 0.00 | 0.04 | 0.04 | 92 | 1013.0 |
| 20260902103246 | 66 | 155 | 0.0 | 2.0 | 0.00 | 0.04 | 0.04 | 92 | 1012.7 |
| 20260902102756 | 66 | 156 | 0.0 | 2.0 | 0.00 | 0.04 | 0.04 | 92 | 1012.8 |
| 20260902102242 | 66 | 156 | 0.0 | 2.0 | 0.00 | 0.04 | 0.04 | 92 | 1012.7 |
| 20260902101737 | 66 | 156 | 0.0 | 2.0 | 0.00 | 0.04 | 0.04 | 92 | 1012.7 |
| 20260902101237 | 66 | 153 | 0.0 | 0.0 | 0.00 | 0.04 | 0.04 | 92 | 1012.7 |
| 20260902100738 | 66 | 153 | 0.0 | 0.0 | 0.00 | 0.04 | 0.04 | 92 | 1012.4 |
| 20260902100237 | 66 | 153 | 0.0 | 3.0 | 0.00 | 0.04 | 0.04 | 91 | 1012.4 |
| 20260902095738 | 66 | 153 | 0.0 | 3.0 | 0.00 | 0.04 | 0.04 | 91 | 1012.1 |
| 20260902095235 | 66 | 153 | 0.0 | 4.0 | 0.00 | 0.04 | 0.04 | 91 | 1012.1 |
| 20260902095006 | 66 | 152 | 1.0 | 4.0 | 0.00 | 0.04 | 0.04 | 91 | 1011.9 |
| 20260902094236 | 66 | 140 | 1.0 | 4.0 | 0.00 | 0.04 | 0.04 | 91 | 1011.7 |
| 20260902093735 | 66 | 138 | 1.0 | 3.0 | 0.00 | 0.04 | 0.04 | 91 | 1011.7 |
| 20260902093235 | 66 | 178 | 1.0 | 6.0 | 0.00 | 0.04 | 0.04 | 91 | 1011.5 |
| 20260902092735 | 66 | 176 | 1.0 | 6.0 | 0.00 | 0.04 | 0.04 | 91 | 1011.2 |
| 20260902092235 | 66 | 176 | 1.0 | 6.0 | 0.00 | 0.04 | 0.04 | 91 | 1011.0 |
| 20260902092008 | 66 | 101 | 1.0 | 6.0 | 0.00 | 0.04 | 0.04 | 91 | 1010.6 |
| 20260902091236 | 66 | 56 | 1.0 | 3.0 | 0.00 | 0.04 | 0.04 | 91 | 1010.3 |
| 20260902090734 | 67 | 342 | 0.0 | 3.0 | 0.00 | 0.04 | 0.04 | 91 | 1010.5 |
| 20260902090235 | 67 | 47 | 1.0 | 5.0 | 0.00 | 0.04 | 0.04 | 91 | 1010.7 |
| 20260902085953 | 67 | 16 | 2.0 | 6.0 | 0.00 | 0.04 | 0.04 | 91 | 1010.8 |
| 20260902085235 | 67 | 73 | 2.0 | 7.0 | 0.00 | 0.04 | 0.04 | 91 | 1010.9 |
| 20260902084732 | 67 | 64 | 1.0 | 7.0 | 0.00 | 0.04 | 0.04 | 91 | 1011.0 |
| 20260902084229 | 67 | 73 | 0.0 | 5.0 | 0.00 | 0.04 | 0.04 | 91 | 1011.1 |
| 20260902083727 | 67 | 92 | 1.0 | 5.0 | 0.00 | 0.04 | 0.04 | 91 | 1011.2 |
| 20260902083448 | 67 | 96 | 1.0 | 6.0 | 0.00 | 0.04 | 0.04 | 90 | 1011.5 |
| 20260902082727 | 67 | 78 | 0.0 | 6.0 | 0.01 | 0.04 | 0.04 | 90 | 1011.6 |
| 20260902082224 | 67 | 128 | 0.0 | 0.0 | 0.01 | 0.04 | 0.04 | 90 | 1011.9 |
| 20260902081942 | 67 | 128 | 0.0 | 2.0 | 0.02 | 0.04 | 0.04 | 90 | 1012.0 |
| 20260902081223 | 68 | 128 | 0.0 | 2.0 | 0.03 | 0.04 | 0.04 | 89 | 1011.9 |
| 20260902080725 | 68 | 95 | 0.0 | 0.0 | 0.03 | 0.04 | 0.04 | 89 | 1011.9 |
| 20260902080507 | 68 | 95 | 0.0 | 0.0 | 0.04 | 0.04 | 0.04 | 89 | 1012.0 |
| 20260902075723 | 68 | 96 | 0.0 | 0.0 | 0.04 | 0.04 | 0.04 | 88 | 1012.1 |
| 20260902075222 | 68 | 96 | 0.0 | 3.0 | 0.04 | 0.04 | 0.04 | 88 | 1012.0 |
| 20260902075206 | 68 | 94 | 1.0 | 8.0 | 0.04 | 0.04 | 0.04 | 87 | 1011.6 |
| 20260902074220 | 68 | 96 | 3.0 | 8.0 | 0.04 | 0.04 | 0.04 | 87 | 1011.2 |
| 20260902073721 | 69 | 74 | 4.0 | 8.0 | 0.04 | 0.04 | 0.04 | 86 | 1011.1 |
| 20260902073223 | 69 | 90 | 4.0 | 8.0 | 0.03 | 0.03 | 0.04 | 85 | 1011.2 |
| 20260902072721 | 70 | 80 | 3.0 | 8.0 | 0.03 | 0.03 | 0.03 | 84 | 1011.8 |
| 20260902072220 | 70 | 74 | 2.0 | 6.0 | 0.03 | 0.03 | 0.03 | 83 | 1012.3 |
| 20260902071721 | 71 | 134 | 2.0 | 4.0 | 0.02 | 0.02 | 0.02 | 83 | 1012.8 |
| 20260902071219 | 71 | 133 | 3.0 | 9.0 | 0.01 | 0.01 | 0.02 | 82 | 1013.2 |
| 20260902070718 | 71 | 168 | 4.0 | 9.0 | 0.01 | 0.01 | 0.01 | 82 | 1013.4 |
| 20260902070218 | 71 | 137 | 3.0 | 8.0 | 0.00 | 0.00 | 0.00 | 81 | 1013.5 |
| 20260902065717 | 72 | 140 | 2.0 | 7.0 | 0.00 | 0.00 | 0.00 | 79 | 1013.9 |
| 20260902065218 | 72 | 143 | 1.0 | 3.0 | 0.00 | 0.00 | 0.00 | 79 | 1014.2 |
| 20260902064717 | 72 | 86 | 0.0 | 2.0 | 0.00 | 0.00 | 0.00 | 76 | 1013.6 |
| 20260902064441 | 73 | 84 | 0.0 | 0.0 | 0.00 | 0.00 | 0.00 | 74 | 1013.5 |
| 20260902063717 | 73 | 84 | 0.0 | 0.0 | 0.00 | 0.00 | 0.00 | 72 | 1013.6 |
| 20260902063218 | 73 | 84 | 0.0 | 0.0 | 0.00 | 0.00 | 0.00 | 70 | 1013.6 |
| 20260902062940 | 73 | 84 | 0.0 | 1.0 | 0.00 | 0.00 | 0.00 | 69 | 1013.9 |
| 20260902062218 | 73 | 84 | 0.0 | 1.0 | 0.00 | 0.00 | 0.00 | 68 | 1013.4 |
| 20260902061717 | 73 | 78 | 0.0 | 0.0 | 0.00 | 0.00 | 0.00 | 68 | 1013.1 |
| 20260902061432 | 73 | 78 | 0.0 | 0.0 | 0.00 | 0.00 | 0.00 | 68 | 1012.6 |
| 20260902060712 | 73 | 78 | 0.0 | 1.0 | 0.00 | 0.00 | 0.00 | 67 | 1012.1 |
| 20260902060439 | 73 | 78 | 0.0 | 1.0 | 0.00 | 0.00 | 0.00 | 67 | 1012.2 |
| 20260902055711 | 73 | 78 | 0.0 | 3.0 | 0.00 | 0.00 | 0.00 | 67 | 1011.9 |
| 20260902055209 | 73 | 78 | 1.0 | 3.0 | 0.00 | 0.00 | 0.00 | 67 | 1011.5 |
| 20260902054709 | 73 | 71 | 0.0 | 3.0 | 0.00 | 0.00 | 0.00 | 67 | 1011.4 |
| 20260902054207 | 73 | 0 | 0.0 | 0.0 | 0.00 | 0.00 | 0.00 | 66 | 1011.8 |
| 20260902053719 | 73 | 0 | 0.0 | 0.0 | 0.00 | 0.00 | 0.00 | 66 | 1012.1 |
| 20260902053204 | 73 | 0 | 0.0 | 0.0 | 0.00 | 0.00 | 0.00 | 65 | 1012.2 |
| 20260902052704 | 73 | 0 | 0.0 | 0.0 | 0.00 | 0.00 | 0.00 | 65 | 1012.4 |
| 20260902052202 | 73 | 0 | 0.0 | 0.0 | 0.00 | 0.00 | 0.00 | 65 | 1012.5 |
| 20260902051702 | 73 | 0 | 0.0 | 0.0 | 0.00 | 0.00 | 0.00 | 66 | 1012.8 |
| 20260902051201 | 73 | 0 | 0.0 | 0.0 | 0.00 | 0.00 | 0.00 | 65 | 1012.9 |
| 20260902050923 | 73 | 0 | 0.0 | 0.0 | 0.00 | 0.00 | 0.00 | 65 | 1012.5 |
| 20260902050200 | 73 | 0 | 0.0 | 0.0 | 0.00 | 0.00 | 0.00 | 65 | 1012.5 |
| 20260902045700 | 73 | 0 | 0.0 | 1.0 | 0.00 | 0.00 | 0.00 | 65 | 1012.3 |
| 20260902045424 | 73 | 0 | 0.0 | 1.0 | 0.00 | 0.00 | 0.00 | 64 | 1012.1 |
| 20260902044701 | 73 | 0 | 0.0 | 0.0 | 0.00 | 0.00 | 0.00 | 64 | 1012.2 |
| 20260902044153 | 73 | 0 | 0.0 | 0.0 | 0.00 | 0.00 | 0.00 | 63 | 1012.2 |
| 20260902043651 | 74 | 0 | 0.0 | 0.0 | 0.00 | 0.00 | 0.00 | 63 | 1012.2 |
| 20260902043149 | 74 | 0 | 0.0 | 0.0 | 0.00 | 0.00 | 0.00 | 63 | 1012.0 |
| 20260902042905 | 74 | 0 | 0.0 | 0.0 | 0.00 | 0.00 | 0.00 | 63 | 1012.0 |
| 20260902042146 | 74 | 0 | 0.0 | 1.0 | 0.00 | 0.00 | 0.00 | 63 | 1011.8 |
| 20260902042132 | 74 | 0 | 0.0 | 2.0 | 0.00 | 0.00 | 0.00 | 63 | 1011.8 |
| 20260902041145 | 74 | 0 | 0.0 | 2.0 | 0.00 | 0.00 | 0.00 | 63 | 1011.8 |
| 20260902040907 | 74 | 0 | 0.0 | 1.0 | 0.00 | 0.00 | 0.00 | 62 | 1011.9 |
| 20260902040410 | 74 | 0 | 0.0 | 1.0 | 0.00 | 0.00 | 0.00 | 62 | 1011.9 |